Home   Weather   Glendale   Past weeks

Flag for USA Past Weather in Glendale, Arizona, USA — Yesterday and Last 2 Weeks

Now
79 °F

Passing clouds.


Feels Like: 79 °F
Forecast: 73 / 92 °F
Wind: 7 mph from Northeast

Location: Phoenix-Deer Valley Municipal Airport

Current Time: Sep 28, 2016 at 8:38:33 AM

Latest Report: Sep 28, 2016 at 7:53 AM


Visibility: 10 mi

Pressure: 29.91 "Hg

Humidity: 42%

Dew Point: 54 °F

Location of GlendaleLocation

Past Weather in Glendale — Graph

°F

Glendale Temperature Yesterday

Maximum temperature yesterday: 86 °F (at 4:53 PM)
Minimum temperature yesterday: 73 °F (at 6:53 AM)
Average temperature yesterday: 79 °F

High & Low Weather Summary for the Past Weeks

 TemperatureHumidityPressure
High101 °F (Sep 18, 3:53 PM)91% (Sep 22, 11:53 AM)30.02 "Hg (Sep 22, 11:53 AM)
Low60 °F (Sep 24, 5:53 AM)8% (Sep 15, 3:53 PM)29.67 "Hg (Sep 22, 6:53 PM)
Average82 °F28%29.85 "Hg
* Reported Sep 13 6:53 AM — Sep 28 6:53 AM, Glendale, Weather by CustomWeather, © 2016

Note: Actual official high and low records may vary slightly from our data, if they occured in-between our weather recording intervals... More about our weather records

Advertising

Glendale Weather History for the Previous 24 Hours

Scroll right to see more
 ConditionsComfort  
Time TempWeatherWind HumidityBarometerVisibility
6:53 AM
Wed, Sep 28
75 °FSunny.8 mph47%29.90 "Hg10 mi
5:53 AM74 °FOvercast.6 mph46%29.88 "Hg10 mi
4:53 AM76 °FPassing clouds.5 mph40%29.86 "Hg10 mi
3:53 AM77 °FPassing clouds.6 mph39%29.86 "Hg10 mi
2:53 AM75 °FClear.8 mph40%29.85 "Hg10 mi
1:53 AM77 °FClear.7 mph37%29.85 "Hg10 mi
12:53 AM76 °FHaze.7 mph39%29.86 "Hg6 mi
11:53 PM
Tue, Sep 27
77 °FPassing clouds.8 mph36%29.87 "Hg5 mi
10:53 PM77 °FLow clouds.6 mph37%29.87 "Hg3 mi
9:53 PM78 °FOvercast.5 mph36%29.87 "Hg3 mi
9:00 PM79 °FPassing clouds.No wind35%29.94 "Hg3 mi
7:53 PM81 °FLow level haze.12 mph33%29.85 "Hg5 mi
6:53 PM84 °FClear.No wind26%29.83 "Hg10 mi
5:53 PM85 °FSunny.3 mph26%29.82 "Hg10 mi
4:53 PM86 °FSunny.8 mph26%29.82 "Hg10 mi
3:53 PM85 °FSunny.8 mph27%29.84 "Hg10 mi
2:53 PM84 °FSunny.9 mph29%29.85 "Hg10 mi
1:53 PM83 °FSunny.12 mph31%29.87 "Hg10 mi
12:53 PM80 °FSunny.12 mph34%29.90 "Hg10 mi
11:53 AM80 °FBroken clouds.20 mph31%29.92 "Hg10 mi
10:53 AM78 °FPartly sunny.14 mph35%29.97 "Hg10 mi
9:53 AM81 °FScattered clouds.12 mph29%29.96 "Hg10 mi
8:53 AM79 °FSunny.13 mph32%29.96 "Hg10 mi
Weather by CustomWeather, © 2016

See weather overviewHow to use our weather pages